Location: *
(50.3194°N, 7.1067°E)
Time: 02:37:27
(UTC+00:00)

CZ-4C R/B - Pass Details

Date: 22 September 2019
Orbit: 654 x 1348 km, 63.4° (Epoch: 17 October)

Event Time Altitude Azimuth Distance (km) Brightness Sun altitude
Rises 22:48:32 0° 316° (NW) 3,786 6.2 -39.0°
Reaches altitude 10° 22:51:00 10° 314° (NW) 2,924 5.5 -39.0°
Enters shadow 22:54:59 38° 303° (WNW) 1,699 3.9 -39.2°
